DW6352 Weather Reports


Display with metric or nautical units.
time (UTC)temp
F
wind
direction
speed
MPH
gust
MPH
rain 1hr
in
rain 24hr
in
rain mn
in
humidity
%
barometer
mb
20260904071623 72 59 2.0 4.0 0.00 0.02 0.00 89 1007.1
20260904070124 73 57 1.0 4.0 0.00 0.02 0.00 89 1007.1
20260904064517 73 51 2.0 6.0 0.00 0.02 0.00 89 1007.1
20260904063003 73 50 3.0 6.0 0.00 0.02 0.00 89 1007.3
20260904061628 73 57 2.0 7.0 0.00 0.02 0.00 88 1007.1
20260904060001 73 90 2.0 6.0 0.00 0.02 0.00 88 1007.1
20260904054510 74 128 4.0 8.0 0.00 0.02 0.00 87 1007.4
20260904053007 74 80 4.0 9.0 0.00 0.02 0.00 87 1007.3
20260904051510 74 101 4.0 8.0 0.00 0.02 0.00 86 1007.3
20260904050009 74 70 2.0 7.0 0.00 0.02 0.00 86 1007.6
20260904044512 74 92 4.0 9.0 0.00 0.02 0.02 86 1007.4
20260904043130 74 13 3.0 9.0 0.00 0.02 0.02 86 1007.5
20260904041512 74 124 5.0 12.0 0.00 0.02 0.02 86 1007.2
20260904040010 74 137 8.0 14.0 0.00 0.02 0.02 86 1007.0
20260904034516 74 123 8.0 17.0 0.00 0.02 0.02 87 1006.9
20260904033021 74 124 6.0 11.0 0.00 0.02 0.02 86 1006.9
20260904031510 74 128 6.0 11.0 0.00 0.02 0.02 86 1007.0
20260904030016 74 93 6.0 11.0 0.00 0.02 0.02 86 1007.2
20260904024507 73 70 5.0 10.0 0.00 0.02 0.02 86 1007.3
20260904023149 73 92 5.0 11.0 0.00 0.02 0.02 86 1007.2
20260904021511 73 69 6.0 12.0 0.00 0.02 0.02 85 1007.0
20260904020136 74 98 6.0 10.0 0.00 0.02 0.02 84 1007.0
20260904014512 74 86 6.0 11.0 0.00 0.02 0.02 83 1006.8
20260904013014 75 103 7.0 12.0 0.00 0.02 0.02 82 1006.5
20260904011502 75 95 7.0 12.0 0.00 0.02 0.02 81 1006.4
20260904010124 76 85 7.0 11.0 0.00 0.02 0.02 80 1006.3
20260904004626 76 112 6.0 11.0 0.00 0.02 0.02 79 1006.5
20260904003012 77 96 5.0 10.0 0.00 0.02 0.02 78 1006.5
20260904001626 78 130 5.0 9.0 0.00 0.02 0.02 76 1006.6
20260904000017 78 128 7.0 14.0 0.00 0.02 0.02 75 1006.4
20260903234621 79 130 9.0 13.0 0.00 0.02 0.02 74 1006.3
20260903233123 79 144 8.0 14.0 0.00 0.02 0.02 73 1006.1
20260903231503 80 120 7.0 12.0 0.00 0.02 0.02 74 1005.9
20260903230125 79 141 5.0 10.0 0.02 0.02 0.02 76 1005.9
20260903224510 78 115 6.0 11.0 0.02 0.02 0.02 79 1006.1
20260903223013 75 107 5.0 10.0 0.02 0.02 0.02 82 1006.0
20260903221504 76 112 6.0 10.0 0.02 0.02 0.02 77 1006.1
20260903220005 79 145 6.0 17.0 0.00 0.00 0.00 68 1006.2
20260903214628 80 171 7.0 15.0 0.00 0.00 0.00 68 1006.1
20260903213018 80 165 7.0 13.0 0.00 0.00 0.00 66 1006.2
20260903211627 81 163 4.0 14.0 0.00 0.00 0.00 66 1006.3
20260903210014 83 167 10.0 16.0 0.00 0.00 0.00 64 1005.9
20260903204502 85 266 7.0 16.0 0.00 0.00 0.00 61 1006.1
20260903203015 83 128 6.0 17.0 0.00 0.00 0.00 62 1006.0
20260903201517 84 155 10.0 19.0 0.00 0.00 0.00 60 1006.4
20260903200007 84 167 7.0 18.0 0.00 0.00 0.00 62 1006.4
20260903194515 85 159 8.0 20.0 0.00 0.00 0.00 59 1006.4
20260903193014 86 187 9.0 12.0 0.00 0.00 0.00 57 1006.5
20260903191511 86 168 9.0 18.0 0.00 0.00 0.00 58 1006.6
20260903190126 86 157 7.0 16.0 0.00 0.00 0.00 57 1006.7
20260903184509 86 156 7.0 18.0 0.00 0.00 0.00 57 1006.8
20260903183127 85 114 6.0 13.0 0.00 0.00 0.00 60 1006.9
20260903181508 84 115 6.0 15.0 0.00 0.00 0.00 65 1007.1
20260903180035 84 122 10.0 15.0 0.00 0.00 0.00 66 1007.2
20260903174627 83 116 11.0 17.0 0.00 0.00 0.00 64 1007.4
20260903173004 82 117 3.0 12.0 0.00 0.00 0.00 67 1007.7
20260903171511 84 128 5.0 12.0 0.00 0.00 0.00 68 1007.9
20260903170015 82 125 5.0 10.0 0.00 0.00 0.00 69 1008.1
20260903164513 80 130 4.0 8.0 0.00 0.00 0.00 71 1008.4
20260903163010 80 167 4.0 9.0 0.00 0.00 0.00 70 1008.4
20260903161505 80 121 3.0 8.0 0.00 0.00 0.00 72 1008.4
20260903160016 80 126 3.0 9.0 0.00 0.00 0.00 75 1008.5
20260903154636 80 124 4.0 10.0 0.00 0.00 0.00 72 1008.3
20260903153018 79 111 3.0 8.0 0.00 0.00 0.00 75 1008.3
20260903151504 78 129 5.0 9.0 0.00 0.00 0.00 77 1008.3
20260903150126 77 96 5.0 9.0 0.00 0.00 0.00 76 1008.4
20260903144630 77 100 4.0 8.0 0.00 0.00 0.00 77 1008.6
20260903143128 76 128 6.0 9.0 0.00 0.00 0.00 78 1008.5
20260903141522 74 125 3.0 10.0 0.00 0.00 0.00 79 1008.5
20260903140127 73 59 4.0 10.0 0.00 0.00 0.00 80 1008.6
20260903134626 71 108 4.0 10.0 0.00 0.00 0.00 81 1008.7
20260903133002 70 83 5.0 10.0 0.00 0.00 0.00 81 1008.8
20260903131503 69 74 5.0 9.0 0.00 0.00 0.00 82 1009.0
20260903130012 68 135 5.0 10.0 0.00 0.00 0.00 82 1009.0
20260903124511 67 130 3.0 9.0 0.00 0.00 0.00 82 1008.9
20260903123127 67 76 2.0 6.0 0.00 0.00 0.00 83 1009.0
20260903121630 66 79 2.0 5.0 0.00 0.00 0.00 83 1009.0
20260903120130 66 49 2.0 6.0 0.00 0.00 0.00 83 1009.1
20260903114502 65 59 2.0 4.0 0.00 0.00 0.00 83 1009.1
20260903113020 66 30 3.0 6.0 0.00 0.00 0.00 82 1009.0
20260903111506 66 76 1.0 5.0 0.00 0.00 0.00 82 1009.0
20260903110003 66 84 3.0 6.0 0.00 0.00 0.00 82 1008.9
20260903104626 66 71 3.0 6.0 0.00 0.00 0.00 82 1008.7
20260903103002 66 70 2.0 8.0 0.00 0.00 0.00 81 1008.5
20260903101628 66 70 4.0 9.0 0.00 0.00 0.00 82 1008.6
20260903100018 66 75 3.0 8.0 0.00 0.00 0.00 82 1008.5
20260903094510 67 40 1.0 5.0 0.00 0.00 0.00 81 1008.5
20260903093031 67 49 2.0 7.0 0.00 0.00 0.00 80 1008.4
20260903091506 67 72 3.0 6.0 0.00 0.00 0.00 81 1008.4
20260903090023 67 76 2.0 4.0 0.00 0.00 0.00 81 1008.6
20260903084624 67 62 2.0 5.0 0.00 0.00 0.00 79 1008.8
20260903083001 67 59 1.0 6.0 0.00 0.00 0.00 79 1008.8
20260903081630 67 48 2.0 8.0 0.00 0.00 0.00 79 1008.7
20260903080125 67 92 3.0 9.0 0.00 0.00 0.00 78 1008.8
20260903074509 68 65 3.0 7.0 0.00 0.00 0.00 77 1008.9
20260903073012 68 80 1.0 4.0 0.00 0.00 0.00 77 1009.0